#timestamp,LO_Frequency,Hit,StdDev 
1585044015.0,286047000.5,N
1585044015.9,286047000.5,N
1585044035.7,286047000.7,N
1585044055.6,286047002.6,N
1585044075.4,286047000.3,N
1585044095.3,286047000.9,N
1585044115.1,286046998.9,N
1585044135.8,286047000.9,N
1585044155.7,286047001.8,N
1585044175.5,286047001.9,N
1585044195.4,286047001.9,N
1585044215.2,286047003.0,N
1585044235.0,286047004.6,N
1585044235.9,286047004.6,N
1585044255.8,286047005.5,N
1585044275.6,286047001.4,N
1585044295.4,286047003.8,N
1585044315.3,286047003.5,N
1585044335.1,286047002.3,N
1585044355.9,286047000.2,N
1585044375.7,286047000.3,N
1585044395.5,286047000.0,N
1585044415.4,286047000.9,N
1585044435.2,286046998.1,N
1585044455.1,286046998.5,N
1585044456.0,286046998.5,N
1585044475.8,286046996.5,N
1585044495.6,286046996.7,N
1585044515.5,286046996.5,N
1585044535.3,286046999.5,N
1585044555.1,286046996.8,N
1585044575.9,286046997.4,N
1585044595.7,286046996.8,N
1585044615.6,286046997.0,N
1585044635.4,286046999.9,N
1585044655.2,286047001.0,N
1585044675.1,286046995.4,N
1585044676.0,286046995.4,N
1585044695.8,286046995.8,N
1585044715.7,286046996.0,N
1585044735.5,286046995.5,N
1585044755.3,286046993.3,N
1585044775.2,286046993.4,N
1585044795.0,286046994.6,N
1585044795.9,286046994.6,N
1585044815.7,286046994.3,N
1585044835.6,286046994.3,N
1585044855.4,286046993.6,N
1585044875.3,286046993.7,N
1585044895.1,286046994.0,N
1585044915.8,286046994.7,N
1585044935.7,286046994.8,N
1585044955.5,286046994.6,N
1585044975.4,286046992.6,Y
1585044995.2,286046997.2,P
1585045015.0,286046997.2,P
1585045015.9,286046997.2,P
1585045035.8,286046995.7,Y
1585045055.6,286046998.6,P
1585045075.5,286046999.4,N
1585045095.3,286046999.4,N
1585045115.1,286046998.3,N
1585045135.9,286047000.7,N
1585045155.7,286047000.4,N
1585045175.6,286046999.8,N
1585045195.4,286046999.7,N
1585045215.2,286047002.7,N
1585045235.1,286047002.4,N
1585045236.0,286047002.4,N
1585045255.8,286047002.5,N
1585045275.6,286047002.4,N
1585045295.5,286046999.8,N
1585045315.3,286047000.8,N
1585045335.2,286047001.0,N
1585045355.9,286047000.7,N
1585045375.7,286047001.0,N
1585045395.6,286046998.8,N
1585045415.4,286046998.1,N
1585045435.2,286046998.2,N
1585045455.1,286046996.8,N
1585045456.0,286046996.8,N
1585045475.8,286046996.6,N
1585045495.7,286046995.0,N
1585045515.5,286046999.0,N
1585045535.3,286046999.5,N
1585045555.2,286047000.1,N
1585045575.0,286047000.4,N
1585045575.9,286047000.4,N
1585045595.8,286046998.4,N
1585045615.6,286046996.7,N
1585045635.4,286046998.3,N
1585045655.3,286047001.0,N
1585045675.1,286046998.5,N
1585045695.8,286046999.0,N
1585045715.7,286046999.5,N
1585045735.5,286046996.5,N
1585045755.4,286046996.8,N
1585045775.2,286047001.1,N
1585045795.0,286047000.8,N
1585045795.9,286047000.8,N
1585045815.8,286047002.8,N
1585045835.6,286046996.9,N
1585045855.5,286046996.9,N
1585045875.3,286046999.1,N
1585045895.1,286046999.4,N
1585045915.9,286047001.2,N
1585045935.7,286046999.7,N
1585045955.5,286046999.3,N
1585045975.4,286046998.2,N
1585045995.2,286047000.4,N
1585046015.1,286046999.9,N
1585046016.0,286046999.9,N
1585046035.8,286046999.7,N
1585046055.6,286046996.5,N
1585046075.5,286046999.0,N
1585046095.3,286047000.3,N
1585046115.2,286046998.6,N
1585046135.9,286046998.6,N
1585046155.7,286046999.5,N
1585046175.6,286046999.2,N
1585046195.4,286046996.6,N
1585046215.2,286046997.1,N
1585046235.1,286046997.0,N
1585046236.0,286046997.0,N
1585046255.8,286046999.6,N
1585046275.7,286046998.7,N
1585046295.5,286046999.8,N
1585046315.3,286046999.7,N
1585046335.2,286047000.0,N
1585046355.0,286047002.8,N
1585046355.9,286047002.8,N
1585046375.8,286047001.6,N
1585046395.6,286047000.9,N
1585046415.4,286047000.3,N
1585046435.3,286047002.1,N
1585046455.1,286047004.4,N
1585046475.8,286046999.9,N
1585046495.7,286047000.3,N
1585046515.5,286047002.5,N
1585046535.4,286047004.1,N
1585046555.2,286047004.5,N
1585046575.0,286047004.3,N
1585046575.9,286047004.3,N
1585046595.8,286047001.3,N
1585046615.6,286047002.6,N
1585046635.5,286047003.8,N
1585046655.3,286047004.3,N
1585046675.1,286047005.8,N
1585046695.9,286047004.8,N
1585046715.7,286047005.5,N
1585046735.5,286047003.3,N
1585046755.4,286047004.1,N
1585046775.2,286047003.7,N
1585046795.1,286047004.2,N
1585046796.0,286047004.2,N
1585046815.8,286047002.2,N
1585046835.6,286047004.2,N
1585046855.5,286047004.4,N
1585046875.3,286047005.3,Y
1585046895.2,286047002.5,P
1585046915.9,286047001.8,P
1585046935.7,286047004.4,P
1585046955.6,286047002.0,N
1585046975.4,286047002.4,N
1585046995.3,286047001.3,N
1585047015.1,286047001.6,N
1585047016.0,286047001.6,N
1585047035.8,286047002.2,N
1585047055.7,286047004.0,Y
1585047075.5,286047000.6,P
1585047095.4,286046998.3,N
1585047115.2,286046996.6,N
1585047135.0,286046998.5,N
1585047135.9,286046998.5,N
1585047155.8,286046998.2,N
1585047175.6,286047000.5,N
1585047195.4,286047000.3,N
1585047215.3,286047002.6,N
1585047235.1,286047002.4,N
1585047255.9,286047002.1,N
1585047275.7,286046998.4,N
1585047295.5,286046997.0,N
1585047315.4,286046999.4,N
1585047335.2,286046998.4,N
1585047355.1,286046998.9,N
1585047356.0,286046998.9,N
1585047375.8,286046998.1,N
1585047395.6,286046996.5,N
1585047415.5,286046999.2,N
1585047435.3,286046999.4,N
1585047455.2,286047000.7,N
1585047475.9,286047002.6,N
1585047495.7,286047000.2,N
1585047515.6,286047000.8,N
1585047535.4,286046998.6,N
1585047555.2,286047000.7,N
1585047575.1,286047000.9,N
1585047576.0,286047000.9,N
1585047595.8,286046998.9,N
